Weather History for KLNS - September, 2014

Change the Weather History Date:

Monday, September 1, 2014

  Actual Average Record
Temperature  
Mean Temperature 78 °F -  
Max Temperature 87 °F 81 °F 96 °F (2010)
Min Temperature 70 °F 59 °F 46 °F (1986)
Cooling Degree Days 14    
Growing Degree Days 28 (Base 50)    
Moisture  
Dew Point 71 °F    
Average Humidity 87    
Maximum Humidity 100    
Minimum Humidity 57    
Precipitation  
Precipitation 0.49 in - - ()
Sea Level Pressure  
Sea Level Pressure 29.99 in    
Wind  
Wind Speed 2 mph (South)    
Max Wind Speed 12 mph    
Max Gust Speed -    
Visibility 5 miles    
Events Fog , Rain , Thunderstorm    
Averages and records for this station are not official NWS values.
T = Trace of Precipitation, MM = Missing Value Source: NWS Daily Summary

Daily Weather History Graph

Daily Weather History Graph

Search for Another Location

Airport or City:

Trip Planner

Search our weather history database for the weather conditions in past years. The results will help you decide how hot, cold, wet, or windy it might be!

Date:

Astronomy

Sep. 01, 2014 Rise Set
Actual Time 6:32 AM EDT 7:36 PM EDT
Civil Twilight 6:04 AM EDT 8:04 PM EDT
Nautical Twilight 5:31 AM EDT 8:37 PM EDT
Astronomical Twilight 4:57 AM EDT 9:12 PM EDT
Moon 1:16 PM EDT (9/1) 11:35 PM EDT (9/1)
Length of Visible Light 13h 59m
Length of Day
13h 03m
Waxing Crescent, 42% of the Moon is Illuminated
Sep 1
Waxing Crescent
Sep 2
First Quarter
Sep 8
Full
Sep 15
Last Quarter
Sep 24
New

Hourly Weather History & Observations

Time (EDT) Temp. Heat Index Dew Point Humidity Pressure Visibility Wind Dir Wind Speed Gust Speed Precip Events Conditions
12:53 AM 72.0 °F - 71.1 °F 97% 30.02 in 6.0 mi SE 3.5 mph - N/A   Mostly Cloudy
1:53 AM 72.0 °F - 71.1 °F 97% 30.00 in 7.0 mi Calm Calm - N/A   Mostly Cloudy
2:53 AM 72.0 °F - 70.0 °F 93% 30.01 in 5.0 mi Calm Calm - N/A   Scattered Clouds
3:53 AM 72.0 °F - 71.1 °F 97% 30.01 in 5.0 mi Calm Calm - 0.00 in Rain Light Rain
4:53 AM 72.0 °F - 70.0 °F 93% 30.01 in 4.0 mi Calm Calm - 0.00 in   Overcast
5:10 AM 71.1 °F - 70.0 °F 96% 30.02 in 2.5 mi SE 3.5 mph - N/A   Mostly Cloudy
5:42 AM 71.1 °F - 70.0 °F 96% 30.03 in 1.0 mi Calm Calm - N/A   Mostly Cloudy
5:53 AM 71.1 °F - 70.0 °F 96% 30.02 in 0.8 mi Calm Calm - N/A   Partly Cloudy
6:02 AM 70.0 °F - 69.1 °F 97% 30.03 in 0.8 mi Calm Calm - N/A   Scattered Clouds
6:44 AM 70.0 °F - 70.0 °F 100% 30.03 in 0.2 mi Calm Calm - N/A Fog Fog
6:53 AM 70.0 °F - 69.1 °F 97% 30.02 in 0.5 mi Calm Calm - N/A Fog Fog
7:05 AM 71.1 °F - 70.0 °F 96% 30.03 in 0.2 mi Calm Calm - N/A Fog Fog
7:53 AM 72.0 °F - 71.1 °F 97% 30.03 in 0.5 mi Calm Calm - N/A Fog Fog
7:57 AM 72.0 °F - 71.1 °F 97% 30.03 in 1.0 mi Calm Calm - N/A   Mist
8:08 AM 72.0 °F - 72.0 °F 100% 30.04 in 2.5 mi Calm Calm - N/A   Mostly Cloudy
8:19 AM 73.0 °F - 72.0 °F 96% 30.03 in 3.0 mi Calm Calm - N/A   Mostly Cloudy
8:33 AM 73.0 °F - 71.1 °F 93% 30.03 in 5.0 mi Calm Calm - N/A   Mostly Cloudy
8:53 AM 73.9 °F - 71.1 °F 91% 30.02 in 5.0 mi Calm Calm - N/A   Mostly Cloudy
9:45 AM 75.9 °F - 71.1 °F 85% 30.03 in 5.0 mi West 3.5 mph - N/A   Haze
9:53 AM 77.0 °F - 72.0 °F 84% 30.02 in 4.0 mi SW 3.5 mph - N/A   Haze
10:07 AM 77.0 °F - 71.1 °F 82% 30.03 in 4.0 mi Variable 3.5 mph - N/A   Haze
11:53 AM 80.1 °F 83.2 °F 70.0 °F 71% 30.01 in 9.0 mi Variable 3.5 mph - N/A   Mostly Cloudy
12:53 PM 82.9 °F 86.5 °F 69.1 °F 63% 29.99 in 10.0 mi SSW 5.8 mph - N/A   Mostly Cloudy
1:53 PM 82.9 °F 86.5 °F 69.1 °F 63% 29.98 in 10.0 mi SSW 4.6 mph - N/A   Scattered Clouds
2:53 PM 82.0 °F 85.9 °F 70.0 °F 67% 29.97 in 10.0 mi WNW 11.5 mph - 0.00 in Rain Light Rain
3:53 PM 86.0 °F 90.7 °F 70.0 °F 59% 29.96 in 10.0 mi West 10.4 mph - 0.00 in   Clear
4:53 PM 86.0 °F 90.1 °F 69.1 °F 57% 29.94 in 10.0 mi Calm Calm - N/A   Scattered Clouds
5:53 PM 87.1 °F 92.0 °F 70.0 °F 57% 29.93 in 10.0 mi Variable 5.8 mph - N/A   Clear
6:53 PM 84.0 °F 89.0 °F 71.1 °F 65% 29.93 in 10.0 mi Calm Calm - N/A   Mostly Cloudy
7:31 PM 79.0 °F - 73.9 °F 84% 29.96 in 2.5 mi SSW 5.8 mph - 0.12 in Rain , Thunderstorm Heavy Thunderstorms and Rain
7:43 PM 75.9 °F - 72.0 °F 87% 29.95 in 2.5 mi West 3.5 mph - 0.47 in Rain , Thunderstorm Heavy Thunderstorms and Rain
7:53 PM 75.9 °F - 72.0 °F 87% 29.94 in 2.5 mi SSE 5.8 mph - 0.49 in Rain , Thunderstorm Light Thunderstorms and Rain
7:55 PM 75.9 °F - 73.0 °F 91% 29.95 in 6.0 mi SSE 5.8 mph - 0.00 in Rain , Thunderstorm Light Rain
8:05 PM 75.9 °F - 73.0 °F 91% 29.95 in 6.0 mi East 3.5 mph - 0.00 in Rain , Thunderstorm Light Rain
8:50 PM 75.2 °F - 71.6 °F 89% 29.96 in 6.0 mi ENE 4.6 mph - 0.00 in   Clear
8:53 PM 73.9 °F - 73.0 °F 97% 29.96 in 6.0 mi ENE 4.6 mph - 0.00 in   Clear
9:53 PM 73.9 °F - 72.0 °F 93% 29.96 in 10.0 mi Calm Calm - N/A   Clear
10:53 PM 73.0 °F - 72.0 °F 96% 29.96 in 8.0 mi Calm Calm - N/A   Clear
11:53 PM 73.0 °F - 72.0 °F 96% 29.96 in 6.0 mi Calm Calm - N/A   Clear